Regional Weather Roundup
Issued by NWS Midland/Odessa, TX

Home | Current Version | Previous Version | Text Only | Print | Product List | Glossary On
Versions: 1 2 3 4 5 6 7 8 9 10 11 12 13 14 15 16 17 18 19 20 21 22 23 24 25 26 27 28 29 30 31 32 33 34 35 36 37 38 39 40 41 42 43 44 45 46 47 48 49 50
000
ASUS44 KMAF 031201
RWRMAF
MIDLAND AREA WEATHER ROUNDUP
NATIONAL WEATHER SERVICE MIDLAND TX
700 AM CDT TUE AUG 03 2021

...IN SOUTHWEST TEXAS AND SOUTHEAST NEW MEXICO...

CITY           SKY/WX    TMP DP  RH WIND       PRES   REMARKS
ALPINE         CLEAR     63  61  94 N3        30.27S
ANDREWS        FAIR      62  60  96 CALM      30.18S
ARTESIA        MOCLDY    66  66 100 CALM      30.20R
BIG SPRING     CLEAR     63  60  88 CALM      30.14R
CARLSBAD       CLEAR     64  61  90 N3        30.16R
DRYDEN           N/A     73  70  90 N7        30.12R
FORT STOCKTON  PTCLDY    67  64  90 S6        30.15R
GUAD PASS      CLEAR     61  56  83 NE12      30.29R
HOBBS          CLEAR     59  55  88 N7        30.20S
LAMESA         NOT AVBL
MARFA          CLEAR     61  59  93 N7        30.26R
MIDLAND AIRPK  CLEAR     65  58  75 CALM      30.15S
MIDLAND INTL   CLEAR     61  59  93 NE5       30.15R
ODESSA         CLEAR     63  55  75 N3        30.17R
PECOS          CLEAR     69  67  94 N3        30.13S
PRESIDIO       CLOUDY    74  63  66 N7        30.14R
SEMINOLE       CLEAR     62  58  86 CALM      30.23R
SNYDER         CLEAR     62  55  79 N7        30.15R
WINK           CLEAR     65  60  84 E5        30.13S
$$
...OTHER STATIONS IN TEXAS...

CITY           SKY/WX    TMP DP  RH WIND       PRES   REMARKS
ABILENE        CLEAR     62  57  83 CALM      30.10R
AMARILLO       PTCLDY    57  39  51 SW8       30.19R
AUSTIN         MOCLDY    74  74 100 NW3       29.98R
BROWNSVILLE    CLOUDY    81  77  88 CALM      29.95R
CORPUS CHRISTI MOCLDY    75  74  96 SE3       29.94S
DALLAS FTW     PTCLDY    73  71  93 N5        30.00R FOG
DEL RIO        PTCLDY    79  73  82 CALM      30.02R
EL PASO        MOCLDY    72  59  63 E6        30.18R
HOUSTON INT    CLOUDY    79  75  87 N7        29.95R
LUBBOCK        PTCLDY    58  51  78 CALM      30.18S
SAN ANGELO     CLEAR     61  59  93 SW3       30.10R
SAN ANTONIO    MOCLDY    75  72  90 W3        30.00R
WACO           CLOUDY    75  73  93 N6        29.99S
WICHITA FALLS  PTCLDY    62  58  86 CALM      30.12R HAZE
$$
...OTHER LOCATIONS IN NEW MEXICO...

CITY           SKY/WX    TMP DP  RH WIND       PRES   REMARKS
ALAMOGORDO       N/A     66  61  82 CALM      30.20R
ALBUQUERQUE    CLEAR     66  55  67 S3        30.26R
CANNON AFB     CLEAR     58  55  90 SE3       30.23S
CLOVIS           N/A    N/A N/A N/A MISG        N/A
HOLLOMAN AFB   PTCLDY    71  60  67 S7        30.21R
ROSWELL        CLOUDY    68  62  81 SE5       30.18R HAZE
RUIDOSO        MOCLDY    57  55  94 CALM      30.37S
SANTA FE       PTCLDY    57  55  93 N5        30.31R
TRUTH OR CONSE CLEAR     71  58  63 SW9       30.22R
TUCUMCARI      PTCLDY    61  51  70 SE5       30.19R
$$



USA.gov is the U.S. government's official web portal to all federal, state and local government web resources and services.